星链-2568 (STARLINK-2568 )

导读 | 星芒AI

STARLINK-2568 是 SpaceX Starlink 项目中的一颗低轨通信卫星,旨在为全球用户提供高速互联网服务。该卫星属于 Starlink 群体部署的一部分,运行在约 550 公里的近地轨道上,采用先进的推进系统和激光通信技术,以提高网络效率和减少延迟。STARLINK-2568 有助于扩大 Starlink 在全球范围内的覆盖,特别是在偏远和网络基础设施薄弱的地区。其部署体现了 SpaceX 在构建全球宽带网络方面的持续努力。

基本信息
目录编号:
48406
目录名称:
STARLINK-2568
国际标识:
2021-038BF
轨道中心:
EARTH
卫星名称:
星链-2568
卫星全名:
星链-2568 (STARLINK-2568 )
卫星状态:
在轨 (已飞行1689 天)
发射日期:
2021-05-04 UTC
国别 :
美国 (US)
星等 :
--
轨道信息
数据来源 国际轨道数据
星历时间: 2025-12-18T01:18:06+0800
13小时前
查看轨道信息
半长轴: 6925.35km
偏心率: 0.000153
轨道倾角: 53.057°
近地点辐角 88.838°
升交点赤经 349.589°
平近点角 271.279°
近地点: 546.155km
远地点: 548.275km
周期: 95.592分钟
每日圈数: 15.063997
详细信息
固有亮度:
5
最大亮度:
2.5
卫星平台:
Starlink V1.0
覆盖范围:
全球
运营商:
太空探索技术公司
运营商所在国:
美国
制造商(研发单位):
太空探索技术公司
制造商所在国:
美国
使用方式:
暂无
卫星简介
星链(Starlink)计划是由太空探索技术公司(SpaceX)提出的一个巨型低轨卫星互联网星座项目,计划在2019年至2024年间在太空搭建由约1.2万颗卫星组成的“星链”网络,其中1584颗将部署在地球上空550千米处的近地轨道,并从2020年开始工作。该卫星仍在工作。
2D轨道图
3D轨道图
轨道高度分析图
轨道倾角分析图
轨道综合分析图
查看轨道综合分析图